Temperature
23 23 23 23 28 30 30 31 31 31 31 29 28 28 29 29 28 27 22 21 21 20 20 20 20 19 19 19 19 19 19 19 19 19 19 19 19 18 18 18 18 18 18 18 18 18 18 18 19
22 23 23 26 29 29 30 31 30 30 29 28 27 27 28 28 25 22 21 21 20 20 19 19 20 19 19 19 19 19 19 19 19 19 19 19 18 18 18 18 18 18 18 18 18 18 18 18 18
22 22 25 28 28 29 30 31 30 30 28 28 28 28 28 27 24 22 21 21 20 20 19 19 20 19 19 19 19 19 19 19 19 19 19 19 18 18 18 18 18 18 18 18 18 18 18 18 18
22 24 26 28 28 29 30 30 30 30 29 28 29 28 27 24 23 22 21 21 21 20 19 20 20 19 19 19 19 19 19 19 19 19 19 19 18 18 18 18 18 18 18 18 18 18 18 18 18
23 26 27 27 28 30 30 30 29 30 30 29 28 29 27 23 22 22 21 21 21 20 20 19 20 19 19 19 19 19 19 19 19 19 19 18 18 18 18 18 18 18 18 18 18 18 18 18 18
25 27 27 27 29 30 30 29 29 30 30 29 29 29 27 23 22 22 21 21 21 20 20 19 20 19 19 19 19 19 19 19 19 19 19 18 18 18 18 18 17 17 17 17 17 17 17 17 18
26 27 27 28 28 29 30 29 29 30 30 30 29 29 27 24 22 22 21 21 21 20 20 19 19 19 18 18 18 19 19 19 19 19 19 18 18 18 18 17 17 17 17 17 17 17 17 17 18
25 27 27 27 28 28 29 29 29 29 30 30 29 30 28 24 22 21 21 21 20 20 20 19 18 18 18 18 18 18 18 18 19 19 18 18 18 18 17 17 17 17 17 17 17 17 17 17 18
23 26 27 28 28 29 29 29 29 28 29 29 29 29 28 24 22 21 21 20 20 19 19 19 18 18 18 17 18 18 18 18 18 19 18 18 17 17 17 16 17 17 17 17 17 17 17 17 17
24 25 27 28 29 29 29 29 29 29 29 29 28 28 25 24 23 22 22 21 20 20 19 19 19 18 18 18 17 17 18 18 18 17 18 17 17 17 17 16 17 17 17 17 17 17 17 17 17
25 26 27 27 27 27 28 28 28 29 30 30 29 28 25 24 23 23 23 22 21 20 19 20 19 18 19 18 18 18 17 17 17 17 17 17 17 17 16 16 16 16 17 17 17 17 17 17 17
25 25 26 26 27 27 27 28 28 29 30 30 29 28 25 24 25 24 23 23 22 21 20 20 19 18 18 18 18 18 18 18 17 17 17 17 17 17 17 16 16 16 16 16 16 16 16 16 17
24 25 25 25 26 27 27 28 28 29 29 28 28 28 26 26 26 25 24 23 22 21 20 20 19 18 18 18 18 18 18 18 17 17 17 17 17 17 16 16 16 16 16 16 16 16 16 16 17
25 25 25 26 26 27 27 28 29 29 29 28 28 27 27 26 26 25 24 23 22 21 20 20 19 19 19 18 18 18 18 18 18 17 17 17 17 16 16 16 16 16 16 16 16 16 16 16 16
24 25 26 26 27 28 28 29 30 30 29 29 28 28 27 27 26 25 25 24 23 21 20 20 20 19 19 19 18 18 17 17 17 17 17 16 16 16 16 16 16 16 16 16 16 16 16 16 16
24 25 25 28 28 28 28 29 31 29 29 29 29 28 27 27 26 26 25 24 23 22 21 21 20 19 20 19 18 18 17 17 17 17 17 16 16 16 16 16 16 16 16 16 16 16 16 16 15
25 25 26 27 28 28 28 30 30 29 29 30 29 29 27 27 26 26 25 24 23 21 21 20 20 20 19 19 19 18 17 17 17 16 16 16 16 16 16 16 16 16 16 16 15 16 15 15 15
25 26 26 27 28 28 28 29 30 29 29 30 29 29 28 27 26 26 24 24 22 21 20 20 20 20 19 19 18 18 17 16 16 16 16 16 16 16 16 16 16 15 15 15 15 15 15 15 14
25 26 26 27 27 27 28 28 29 29 29 30 29 29 28 28 27 26 24 23 22 21 20 20 19 19 19 18 18 17 16 16 16 16 16 16 15 15 15 15 15 15 15 15 15 14 14 14 14
24 24 25 26 26 26 27 28 29 29 29 28 28 27 27 27 26 26 25 23 22 21 20 19 19 19 19 18 18 17 16 16 16 16 15 15 15 14 14 14 14 14 14 14 14 13 13 13 13
23 24 25 25 26 26 26 27 28 29 28 26 26 25 25 25 25 25 24 23 22 21 20 19 18 18 18 17 17 17 16 16 15 15 15 15 14 14 13 13 13 13 13 13 13 12 12 12 12
23 24 25 25 25 26 26 27 28 28 28 27 25 24 23 23 23 23 23 23 22 21 20 19 18 18 17 17 17 16 16 15 15 15 15 14 13 13 13 12 12 12 12 12 12 12 12 11 10
24 25 25 24 25 25 26 25 28 27 27 26 24 21 20 20 20 20 20 21 20 20 19 18 18 17 17 17 16 16 15 15 15 14 14 13 13 12 12 11 11 11 11 11 11 11 10 10 9
25 24 24 24 25 24 25 26 27 27 25 24 22 19 17 17 17 17 17 18 18 18 18 17 17 16 16 16 15 15 15 14 14 14 13 12 12 12 11 11 11 10 10 10 10 10 9 9 8
24 23 23 23 24 24 26 25 26 23 22 20 19 17 15 15 16 16 16 16 16 16 16 16 16 15 15 15 15 14 14 13 13 12 12 12 11 11 10 10 9 9 9 9 9 8 8 7 7
23 24 23 23 24 25 25 25 25 22 19 17 16 15 14 14 14 14 14 14 15 15 15 15 15 14 14 14 14 13 13 12 12 11 11 11 10 9 9 8 8 8 8 8 7 7 7 6 6
24 24 25 24 24 25 26 25 23 21 19 17 16 15 14 13 13 13 13 14 14 14 14 14 14 14 13 13 13 12 12 12 11 11 10 10 9 8 8 8 7 7 7 7 6 6 6 6 5
25 25 24 23 23 23 25 25 25 21 19 17 16 14 13 13 13 13 13 13 13 13 13 13 13 13 12 12 12 11 11 11 10 10 9 8 8 8 7 7 7 6 6 6 5 5 5 5 5
24 24 24 24 24 24 24 25 24 22 20 17 15 13 12 12 12 12 12 12 12 12 12 12 12 12 11 11 11 10 10 9 9 8 8 7 7 7 6 6 6 6 5 5 5 5 4 4 4
24 24 24 23 23 24 24 23 21 21 19 16 14 12 11 11 11 11 11 11 11 11 11 11 11 11 10 10 10 10 9 8 8 7 7 7 6 6 6 5 5 5 5 4 4 4 3 3 3
Wind_Speed
7 6 6 5 7 7 6 3 3 4 2 2 1 1 3 5 5 2 6 14 16 17 19 21 16 15 14 13 14 16 18 19 20 19 18 18 17 16 15 14 13 13 13 12 12 12 11 10 9
6 4 5 5 8 8 4 2 4 4 3 1 2 1 1 2 4 5 9 15 17 18 19 20 19 16 15 15 15 16 18 18 19 18 18 17 16 15 14 13 12 11 11 11 10 10 9 9 8
7 6 5 7 9 10 7 4 6 4 1 3 3 1 2 3 4 7 11 17 18 17 18 20 20 17 16 16 16 16 17 17 17 17 16 16 15 14 13 12 11 10 9 9 9 9 8 7 6
6 5 6 10 15 13 12 10 8 5 3 5 4 2 3 4 4 10 16 18 18 17 18 20 20 18 17 16 16 16 16 16 16 16 15 14 13 12 11 10 9 8 8 7 7 7 7 6 5
6 7 12 16 19 16 13 12 11 10 6 6 5 2 4 5 8 15 17 17 17 16 17 21 19 18 17 16 16 15 15 15 15 15 14 13 12 11 9 8 8 7 6 6 6 6 6 5 4
7 8 15 19 19 15 13 13 12 12 10 8 7 4 5 9 12 15 17 16 16 16 16 20 19 19 18 17 16 15 15 14 14 13 12 11 10 9 8 8 7 6 6 5 5 6 5 4 3
12 13 19 21 17 15 13 11 12 13 13 11 8 5 6 11 12 15 15 15 15 15 15 18 21 20 18 17 17 16 15 14 13 13 12 11 10 9 8 8 7 6 5 5 5 5 5 4 3
10 10 18 18 16 14 8 7 8 12 13 10 9 7 7 14 15 15 14 14 15 15 15 16 19 20 19 19 17 16 15 15 14 13 12 11 10 9 8 9 8 6 5 5 5 5 5 4 3
8 12 16 15 13 11 7 6 6 7 11 11 12 7 5 19 18 16 15 15 15 15 15 15 17 17 18 18 18 17 15 14 14 14 13 12 13 13 12 9 9 6 5 5 4 4 4 4 6
10 15 16 9 8 6 4 6 5 8 13 14 14 9 10 20 20 19 18 18 18 17 17 16 16 16 16 14 15 15 15 15 15 14 15 13 10 8 8 12 8 6 5 5 5 4 6 8 6
11 14 11 8 8 7 8 7 6 9 13 16 17 17 16 20 20 20 19 18 18 18 17 17 16 15 15 12 12 12 12 13 14 13 13 11 8 8 8 8 10 9 9 9 8 8 6 4 1
12 13 11 10 7 9 10 10 8 12 12 8 13 16 19 21 21 21 20 18 17 18 19 17 16 14 14 12 11 11 10 10 11 12 12 10 8 7 7 6 7 8 7 5 5 4 3 3 3
16 12 12 13 13 14 14 15 12 12 12 8 10 16 21 22 21 20 18 17 18 18 18 17 17 15 13 11 9 10 10 10 11 10 12 10 8 7 7 6 5 6 5 6 5 4 4 4 4
13 15 14 14 15 14 15 14 10 8 7 10 13 17 20 22 22 21 20 19 19 18 17 17 17 16 14 12 10 9 10 9 10 10 11 11 8 6 6 6 5 5 5 4 4 4 4 3 2
9 11 14 15 14 11 10 13 12 5 5 10 13 15 18 20 21 22 22 21 19 18 17 17 17 16 16 15 13 10 10 10 9 8 9 9 9 7 6 5 5 4 4 5 4 5 4 3 3
12 14 14 14 12 11 10 12 8 3 5 8 10 12 14 17 20 21 21 20 18 17 17 17 15 17 17 14 12 10 9 8 7 6 6 8 7 7 5 4 3 4 4 4 4 3 3 3 2
13 14 15 12 9 8 12 11 7 1 4 6 7 9 12 14 18 20 20 19 18 17 16 17 17 17 17 15 11 10 6 5 4 3 2 4 5 5 5 4 4 5 5 4 4 4 3 3 2
13 13 12 12 9 9 12 11 6 3 4 6 7 8 10 13 16 17 18 18 17 16 16 16 17 16 15 13 10 8 6 4 3 4 4 4 3 4 5 5 6 6 5 5 5 5 4 2 1
6 10 12 9 4 8 11 11 9 6 6 6 6 6 8 11 12 12 15 17 16 16 16 16 16 16 14 11 11 9 7 5 5 6 7 5 4 4 5 6 6 5 5 5 6 4 3 2 0
11 11 10 8 5 7 10 12 11 9 6 3 4 5 6 8 8 8 11 14 17 17 17 16 16 16 15 11 9 6 7 6 5 5 6 6 4 5 5 6 5 5 5 6 5 3 2 2 0
16 15 13 9 7 9 10 14 14 11 6 2 2 5 7 8 9 7 8 11 14 15 16 14 15 14 14 12 10 10 7 5 4 5 4 5 5 5 6 6 6 5 5 4 4 3 3 2 2
15 14 12 10 11 11 9 14 14 11 9 4 1 5 8 9 8 7 5 5 9 11 12 12 12 12 12 13 13 13 9 7 5 5 6 7 8 8 7 7 7 6 5 5 4 4 3 3 3
11 10 11 11 11 12 11 11 13 11 12 4 3 8 10 11 10 8 7 4 3 4 6 9 11 11 12 13 13 12 9 8 7 7 9 9 8 10 9 9 8 7 6 6 6 5 3 2 1
9 7 8 9 11 14 15 13 11 7 4 1 6 9 10 10 10 10 10 10 9 9 8 9 12 12 12 12 12 11 12 12 11 11 10 9 8 8 10 10 8 8 7 7 6 5 5 4 3
13 11 9 10 11 12 9 11 5 8 6 5 6 8 10 11 11 12 12 12 12 12 11 12 13 12 11 11 10 11 12 12 12 11 11 11 9 8 8 8 7 7 8 7 6 4 4 3 1
15 16 11 8 10 10 10 9 6 9 8 8 8 9 10 11 12 13 13 13 13 13 13 13 14 13 12 12 11 11 11 10 10 12 12 11 9 8 8 8 8 8 7 6 5 3 3 1 1
15 15 14 11 9 8 8 6 7 8 9 8 9 10 10 11 11 12 13 13 13 14 13 13 14 14 13 13 13 13 12 13 14 14 13 11 9 9 9 8 7 7 6 5 3 3 1 0 2
15 14 10 12 12 13 12 13 10 14 10 9 9 9 10 10 11 12 12 13 13 13 13 14 14 14 14 13 13 12 14 14 14 13 13 12 10 9 9 8 7 6 5 4 2 2 2 2 3
13 13 12 13 13 13 12 7 5 11 12 11 10 9 10 10 10 11 11 12 13 13 14 14 14 15 14 14 15 15 15 15 14 13 12 11 10 9 8 7 7 5 4 3 2 2 2 3 4
10 12 14 13 13 12 13 2 7 9 12 13 12 11 10 11 10 11 11 12 13 14 14 14 14 15 15 15 15 15 15 14 14 13 12 11 10 8 7 6 6 4 3 2 2 2 3 4 5
Wind_Direction
212 230 261 269 267 260 276 298 310 316 356 46 345 316 330 338 330 22 117 152 151 153 150 158 160 157 153 145 138 137 140 144 147 149 149 148 146 142 138 134 131 128 126 123 120 116 113 112 113
205 223 246 262 274 269 261 312 308 333 4 75 152 200 303 33 51 103 139 150 154 153 154 161 157 159 155 150 144 140 141 143 145 147 147 147 146 144 141 139 137 133 130 127 122 117 114 114 114
191 229 264 270 262 268 281 322 336 340 191 217 195 194 350 38 104 135 145 153 156 155 157 153 157 160 158 155 152 148 147 146 147 148 149 149 148 147 146 146 143 138 134 130 124 118 116 115 112
194 222 246 256 260 263 277 290 313 295 209 207 212 154 96 60 123 139 146 157 159 159 159 154 161 162 160 159 158 155 152 151 152 152 152 152 151 151 150 150 147 145 142 136 128 122 119 116 110
226 248 252 255 260 265 271 278 282 265 234 206 216 173 117 102 120 137 152 159 161 161 161 157 163 163 163 163 163 160 158 158 157 156 155 153 152 152 153 154 154 156 155 147 135 126 120 114 103
220 241 252 256 260 262 264 266 263 254 236 209 206 195 121 131 142 150 156 163 164 162 163 155 163 166 167 168 168 167 166 165 162 160 157 155 154 155 158 162 165 169 167 159 145 135 126 116 99
234 240 251 257 264 263 261 257 249 242 230 212 205 198 144 153 154 158 160 167 165 167 165 161 170 172 173 173 173 172 171 170 168 165 162 162 163 166 169 172 175 175 170 159 146 135 125 114 100
239 241 247 248 251 251 239 242 241 241 234 216 210 217 172 160 157 161 165 169 170 172 170 168 174 177 179 181 179 177 175 174 172 171 171 171 172 178 180 187 172 173 165 153 139 128 119 117 113
227 235 238 234 236 233 212 243 245 240 236 216 213 226 137 150 158 167 171 176 177 177 176 176 178 180 185 185 177 181 181 180 178 179 177 182 191 187 187 186 151 169 165 152 136 124 131 170 164
215 230 234 233 233 227 221 264 268 227 220 215 214 197 149 155 166 177 182 183 183 182 184 182 185 182 188 186 176 189 191 185 195 189 184 197 198 194 191 133 152 170 168 163 147 155 196 225 186
217 233 234 228 236 262 274 279 262 238 222 216 210 194 174 172 178 187 192 191 189 185 188 188 187 188 190 186 184 191 195 185 199 195 191 200 193 194 197 175 173 186 192 197 169 202 207 203 168
224 235 244 242 241 261 279 286 274 244 235 224 216 193 182 186 188 194 197 194 192 190 190 192 187 189 195 193 190 193 198 189 197 191 199 195 201 204 198 200 187 189 197 196 206 202 174 183 183
225 233 236 248 258 267 277 274 271 254 236 228 211 193 191 197 197 198 200 199 197 195 192 193 192 188 193 198 201 199 203 197 197 193 198 206 204 208 201 200 199 212 193 188 201 199 168 182 178
223 234 246 253 258 262 263 265 250 241 217 208 203 200 201 204 202 198 199 203 201 197 195 193 194 191 191 196 204 204 207 205 207 199 200 205 214 207 203 196 192 204 201 197 191 175 175 186 160
229 233 240 241 244 246 249 244 226 218 209 204 204 207 210 210 206 204 202 204 202 198 196 195 194 194 194 198 203 207 212 207 212 204 203 204 215 201 202 201 189 187 173 163 175 159 164 158 151
213 227 236 226 223 225 231 219 172 174 211 210 209 210 215 215 214 211 208 206 204 198 195 196 196 195 195 200 201 207 211 209 211 209 203 204 214 201 197 186 173 151 155 157 151 162 155 136 135
205 216 219 204 204 214 223 224 164 207 230 225 216 216 218 219 222 219 215 207 205 202 196 195 199 196 195 195 196 204 198 201 203 198 199 191 195 186 174 153 133 135 132 130 128 110 115 113 95
204 212 205 206 181 219 226 232 218 239 259 243 235 230 226 228 227 224 220 215 206 203 200 199 197 197 192 190 189 187 176 159 108 78 64 73 107 135 139 130 126 125 123 117 109 107 91 96 94
221 218 210 206 189 234 231 237 239 246 258 252 250 251 248 249 248 234 222 217 210 204 201 200 199 191 188 186 183 178 164 118 87 72 68 76 97 120 129 131 132 135 133 126 121 114 117 116 130
221 222 220 215 213 249 246 248 247 244 245 264 288 288 286 285 276 256 235 219 213 208 204 200 198 191 187 180 169 153 126 104 98 95 86 89 108 126 138 148 142 139 131 129 133 141 172 124 66
220 227 229 231 219 231 250 247 234 225 210 210 319 328 325 320 308 291 255 229 217 210 205 202 195 186 181 160 135 122 113 111 114 106 105 102 106 114 125 132 127 127 124 122 123 137 148 155 140
215 218 232 238 245 236 221 248 213 204 199 184 4 1 354 351 341 331 302 236 217 210 198 192 182 174 163 148 146 149 149 145 152 149 140 130 122 110 105 110 110 109 110 113 115 100 123 158 160
219 208 222 235 244 255 229 245 233 190 204 181 41 21 12 7 11 21 27 44 101 145 158 158 149 142 139 140 144 145 143 138 135 135 132 120 106 98 95 96 101 101 100 99 97 100 99 124 125
213 202 216 235 240 238 232 232 230 187 186 107 45 30 24 25 36 47 55 64 75 88 105 117 120 118 121 127 132 136 137 136 140 137 130 117 106 100 101 104 104 106 108 107 106 108 98 74 62
209 214 215 214 217 232 203 220 206 97 80 62 54 48 43 42 49 55 60 66 73 81 89 98 103 102 105 110 114 122 129 135 137 132 126 119 113 110 108 110 109 108 107 107 107 101 93 97 93
205 218 229 230 221 210 180 219 133 106 101 92 82 73 63 57 56 58 60 65 70 75 80 88 93 93 95 97 99 104 112 115 117 119 120 116 115 113 112 108 107 107 110 111 109 117 116 107 277
213 222 238 257 263 251 200 154 133 135 121 105 94 84 73 65 60 60 59 61 65 70 74 83 90 91 92 96 98 99 102 107 112 114 112 110 111 114 110 110 109 105 102 104 120 107 109 163 295
233 226 222 232 239 237 227 211 198 171 151 129 110 95 82 71 64 60 60 62 65 70 75 80 84 89 92 95 97 100 103 107 110 109 106 107 108 109 111 108 105 107 111 120 135 131 68 333 332
206 217 226 234 244 248 244 219 109 154 150 137 116 99 90 80 72 67 66 67 71 75 78 82 85 89 91 94 98 101 104 105 105 104 105 106 106 109 110 112 115 116 112 96 65 29 359 330 329
217 221 220 233 235 244 261 196 101 131 136 130 118 105 94 88 82 78 77 79 79 80 82 85 89 92 96 99 100 102 104 104 104 104 105 107 106 107 107 108 104 99 89 68 28 358 343 331 327
Height
1535 1536 1536 1536 1527 1517 1513 1507 1506 1506 1507 1512 1514 1513 1512 1512 1514 1522 1524 1524 1527 1530 1532 1535 1538 1541 1544 1547 1549 1551 1553 1555 1557 1559 1561 1562 1564 1566 1567 1569 1570 1572 1573 1573 1574 1575 1575 1575 1576
1535 1536 1537 1533 1524 1521 1512 1506 1507 1508 1512 1514 1515 1516 1515 1515 1520 1522 1522 1524 1527 1531 1533 1536 1539 1542 1545 1548 1550 1552 1554 1557 1558 1560 1562 1564 1565 1567 1568 1570 1571 1573 1573 1574 1575 1575 1576 1576 1577
1534 1536 1537 1527 1522 1520 1513 1506 1508 1510 1514 1515 1514 1515 1516 1518 1521 1522 1522 1524 1529 1532 1535 1536 1540 1543 1546 1549 1551 1553 1556 1558 1560 1562 1563 1565 1566 1568 1569 1571 1572 1573 1574 1575 1575 1575 1576 1576 1577
1536 1537 1534 1527 1521 1512 1510 1509 1511 1511 1513 1514 1514 1515 1518 1521 1521 1522 1522 1526 1530 1533 1536 1536 1540 1543 1547 1550 1552 1555 1557 1559 1561 1562 1564 1565 1567 1569 1570 1571 1573 1573 1574 1575 1575 1576 1576 1577 1577
1534 1532 1526 1522 1515 1509 1508 1511 1513 1511 1511 1513 1514 1513 1518 1522 1521 1522 1524 1528 1531 1534 1537 1537 1540 1544 1547 1550 1553 1555 1558 1560 1561 1563 1565 1566 1568 1569 1571 1572 1573 1574 1575 1575 1575 1576 1576 1577 1577
1531 1527 1524 1519 1510 1506 1508 1510 1511 1510 1508 1511 1513 1513 1518 1522 1522 1524 1526 1529 1532 1534 1537 1537 1540 1544 1547 1551 1553 1556 1558 1560 1562 1564 1565 1567 1568 1570 1571 1572 1573 1574 1575 1575 1575 1576 1576 1577 1577
1527 1521 1518 1513 1510 1508 1507 1508 1508 1507 1506 1508 1511 1512 1517 1521 1523 1525 1527 1529 1532 1534 1537 1538 1540 1543 1546 1550 1553 1556 1558 1560 1562 1564 1565 1567 1568 1570 1571 1572 1573 1574 1574 1575 1575 1575 1576 1576 1577
1523 1519 1515 1511 1512 1507 1505 1507 1506 1506 1504 1507 1510 1510 1513 1519 1521 1524 1527 1529 1532 1534 1536 1538 1541 1544 1546 1549 1552 1555 1558 1560 1561 1563 1565 1566 1568 1569 1570 1572 1573 1573 1574 1574 1575 1575 1576 1576 1577
1524 1520 1512 1508 1508 1504 1504 1505 1504 1506 1505 1506 1508 1510 1513 1516 1519 1523 1526 1528 1530 1533 1535 1538 1541 1544 1547 1550 1551 1554 1556 1559 1561 1562 1564 1565 1567 1569 1570 1571 1571 1572 1573 1574 1574 1575 1576 1577 1577
1520 1514 1507 1503 1504 1502 1503 1504 1504 1503 1502 1504 1506 1510 1513 1514 1517 1520 1523 1525 1528 1530 1533 1536 1540 1543 1547 1550 1551 1554 1556 1558 1560 1562 1563 1565 1568 1569 1571 1570 1571 1571 1572 1573 1574 1575 1576 1578 1580
1514 1509 1504 1506 1507 1507 1505 1503 1502 1500 1497 1498 1502 1506 1511 1513 1515 1518 1521 1524 1526 1529 1531 1536 1539 1542 1546 1549 1551 1554 1556 1557 1559 1562 1563 1565 1566 1568 1569 1570 1570 1571 1572 1574 1574 1576 1578 1579 1579
1511 1509 1508 1507 1507 1507 1504 1502 1500 1498 1495 1496 1499 1503 1508 1510 1512 1515 1518 1522 1525 1528 1530 1534 1537 1540 1544 1547 1550 1552 1555 1556 1559 1559 1561 1563 1564 1566 1568 1569 1571 1571 1572 1573 1575 1576 1576 1577 1578
1509 1507 1508 1508 1507 1505 1503 1500 1498 1494 1495 1496 1498 1501 1504 1507 1510 1513 1517 1520 1523 1526 1529 1531 1534 1537 1540 1544 1547 1550 1553 1555 1556 1558 1559 1561 1563 1565 1566 1567 1568 1570 1571 1572 1573 1575 1575 1576 1577
1505 1506 1506 1505 1503 1501 1500 1495 1494 1490 1491 1493 1495 1497 1500 1504 1507 1510 1513 1516 1519 1523 1526 1529 1531 1534 1537 1540 1543 1547 1550 1552 1556 1556 1558 1559 1562 1563 1564 1565 1566 1568 1569 1570 1571 1572 1573 1575 1576
1504 1505 1502 1500 1498 1496 1496 1491 1487 1488 1489 1490 1492 1495 1498 1500 1504 1506 1508 1511 1516 1519 1523 1525 1528 1531 1534 1537 1541 1545 1548 1551 1553 1555 1556 1557 1560 1561 1562 1564 1564 1565 1566 1567 1569 1570 1571 1572 1573
1503 1502 1500 1491 1492 1492 1495 1487 1482 1486 1487 1487 1489 1492 1495 1497 1500 1502 1505 1508 1513 1517 1519 1522 1526 1528 1531 1534 1538 1543 1546 1549 1551 1553 1554 1555 1557 1558 1560 1561 1562 1563 1564 1566 1567 1568 1569 1570 1571
1496 1495 1492 1487 1488 1487 1488 1481 1480 1485 1485 1485 1487 1489 1492 1494 1496 1499 1503 1506 1510 1513 1515 1518 1522 1525 1528 1532 1535 1540 1543 1545 1548 1550 1552 1553 1555 1556 1558 1559 1560 1561 1562 1563 1564 1565 1567 1567 1567
1490 1488 1489 1486 1485 1487 1485 1481 1480 1483 1483 1483 1484 1486 1489 1491 1492 1496 1499 1503 1506 1509 1511 1514 1517 1521 1525 1529 1532 1536 1539 1542 1544 1546 1548 1550 1552 1554 1555 1556 1557 1558 1560 1560 1561 1562 1563 1564 1564
1486 1487 1487 1485 1485 1487 1484 1482 1479 1481 1482 1481 1482 1484 1486 1488 1490 1493 1495 1498 1502 1504 1507 1510 1514 1517 1521 1524 1528 1532 1535 1537 1540 1543 1546 1548 1550 1551 1552 1553 1554 1555 1557 1557 1558 1559 1560 1560 1560
1492 1493 1489 1487 1487 1488 1484 1482 1478 1479 1481 1483 1483 1484 1485 1486 1487 1489 1491 1494 1496 1499 1502 1505 1509 1512 1516 1520 1524 1527 1529 1532 1536 1539 1542 1544 1546 1547 1548 1548 1549 1550 1552 1553 1554 1556 1557 1557 1557
1492 1492 1488 1487 1484 1486 1487 1484 1477 1476 1480 1483 1484 1485 1485 1485 1485 1485 1487 1489 1492 1495 1498 1501 1505 1508 1512 1516 1518 1521 1525 1528 1531 1534 1538 1540 1541 1542 1543 1543 1543 1545 1548 1550 1551 1552 1553 1554 1554
1490 1485 1486 1487 1489 1481 1483 1483 1469 1471 1476 1481 1483 1484 1485 1485 1484 1483 1483 1485 1487 1491 1494 1498 1502 1505 1509 1511 1514 1517 1520 1524 1528 1529 1530 1533 1535 1538 1539 1540 1542 1543 1545 1547 1548 1549 1551 1551 1552
1480 1479 1483 1485 1486 1485 1481 1486 1468 1470 1474 1478 1484 1487 1487 1486 1484 1483 1482 1483 1484 1488 1491 1495 1498 1502 1505 1508 1511 1514 1518 1521 1524 1526 1527 1529 1532 1534 1536 1538 1540 1541 1543 1544 1546 1547 1548 1549 1550
1478 1481 1483 1483 1482 1491 1479 1481 1473 1467 1475 1480 1486 1489 1489 1488 1486 1484 1483 1483 1484 1486 1490 1493 1496 1500 1503 1507 1509 1512 1516 1519 1521 1523 1525 1527 1529 1532 1534 1537 1538 1540 1541 1543 1545 1546 1547 1548 1547
1478 1484 1489 1488 1487 1481 1468 1476 1469 1476 1483 1487 1490 1492 1492 1490 1488 1487 1486 1486 1486 1488 1491 1493 1496 1500 1503 1506 1509 1511 1515 1518 1520 1522 1523 1526 1529 1532 1533 1536 1538 1540 1542 1543 1544 1545 1546 1546 1546
1475 1476 1482 1484 1478 1469 1472 1471 1470 1479 1487 1491 1493 1494 1494 1493 1492 1490 1490 1490 1490 1491 1493 1495 1498 1501 1504 1507 1509 1512 1515 1517 1520 1522 1524 1526 1529 1532 1534 1537 1539 1541 1542 1543 1544 1545 1545 1545 1545
1469 1470 1464 1471 1470 1471 1462 1467 1476 1481 1487 1491 1494 1496 1496 1496 1495 1494 1494 1493 1494 1495 1497 1499 1501 1503 1506 1509 1511 1513 1516 1518 1520 1523 1525 1528 1530 1533 1536 1539 1540 1541 1543 1543 1544 1544 1544 1543 1544
1461 1461 1467 1474 1481 1481 1468 1467 1465 1477 1484 1491 1495 1497 1499 1499 1498 1498 1497 1497 1498 1499 1500 1502 1504 1506 1508 1511 1513 1515 1517 1520 1522 1525 1527 1530 1533 1536 1538 1540 1541 1542 1543 1543 1543 1544 1542 1542 1540
1464 1465 1465 1464 1463 1471 1473 1465 1461 1470 1481 1489 1495 1499 1500 1501 1501 1501 1501 1501 1502 1503 1504 1506 1507 1509 1511 1513 1516 1518 1520 1522 1525 1527 1530 1533 1535 1537 1539 1541 1542 1543 1543 1542 1542 1542 1540 1539 1538
1457 1458 1462 1469 1468 1464 1466 1471 1472 1476 1483 1490 1496 1500 1502 1503 1503 1504 1505 1505 1506 1507 1509 1510 1512 1514 1515 1517 1519 1521 1523 1525 1528 1530 1533 1535 1537 1539 1540 1541 1542 1542 1542 1541 1540 1539 1538 1537 1535